Location: Unspecified
(0.0000°N, 0.0000°E)
Time: 08:30:10
(UTC+00:00)

Geosat - Visible Passes

Search period start: 10 June 2023 00:00
Search period end: 20 June 2023 00:00
Orbit: 762 x 764 km, 108.1° (Epoch: 09 June)

Date Brightness Start Highest point End Pass type
(mag) Time Alt. Az. Time Alt. Az. Time Alt. Az.
17 Jun 6.4 03:18:03 15° N 03:18:03 15° N 03:18:53 10° N visible
18 Jun 6.2 04:19:11 12° NW 04:19:11 12° NW 04:19:35 10° NW visible
19 Jun 5.5 03:40:08 29° N 03:40:08 29° N 03:42:36 10° N visible
